QPF
0.06 0.06 0.06 0.06 0.05 0.06 0.07 0.08 0.11 0.13 0.15 0.13 0.12 0.12 0.10 0.09 0.08 0.06 0.04 0.04 0.08 0.10 0.13 0.14 0.16 0.18 0.17 0.15 0.12 0.10 0.08 0.06 0.05 0.03 0.02 0.03 0.03 0.04 0.06 0.05 0.04 0.03 0.02
0.06 0.07 0.07 0.06 0.05 0.05 0.05 0.05 0.08 0.08 0.08 0.09 0.09 0.11 0.09 0.08 0.06 0.05 0.04 0.04 0.05 0.09 0.11 0.14 0.16 0.18 0.19 0.19 0.18 0.13 0.09 0.08 0.06 0.04 0.04 0.03 0.03 0.04 0.06 0.07 0.06 0.05 0.05
0.08 0.07 0.07 0.06 0.05 0.04 0.04 0.05 0.06 0.06 0.06 0.06 0.05 0.06 0.04 0.04 0.04 0.05 0.06 0.04 0.04 0.05 0.08 0.12 0.14 0.15 0.17 0.21 0.23 0.19 0.14 0.10 0.07 0.06 0.05 0.05 0.04 0.03 0.04 0.06 0.07 0.07 0.06
0.10 0.10 0.07 0.06 0.05 0.06 0.06 0.06 0.07 0.05 0.05 0.04 0.03 0.02 0.02 0.01 0.01 0.03 0.04 0.03 0.04 0.05 0.06 0.11 0.13 0.14 0.16 0.19 0.22 0.22 0.17 0.13 0.09 0.08 0.07 0.05 0.05 0.04 0.03 0.03 0.05 0.06 0.05
0.13 0.10 0.08 0.08 0.08 0.09 0.08 0.08 0.06 0.04 0.03 0.04 0.03 0.02 0.01 0.01 0.01 0.01 0.01 0.02 0.03 0.04 0.04 0.08 0.11 0.12 0.13 0.16 0.18 0.19 0.19 0.18 0.15 0.13 0.10 0.07 0.05 0.04 0.03 0.03 0.05 0.06 0.05
0.14 0.12 0.11 0.11 0.11 0.11 0.08 0.06 0.05 0.03 0.02 0.03 0.03 0.02 0.01 0.01 0.02 0.01 0.01 0.01 0.01 0.02 0.02 0.04 0.04 0.05 0.09 0.12 0.14 0.15 0.17 0.17 0.17 0.16 0.14 0.11 0.09 0.06 0.04 0.04 0.04 0.04 0.05
0.14 0.13 0.15 0.16 0.14 0.11 0.07 0.05 0.03 0.02 0.02 0.03 0.03 0.03 0.02 0.02 0.02 0.01 0.00 0.00 0.01 0.01 0.01 0.02 0.03 0.04 0.05 0.05 0.07 0.10 0.12 0.16 0.18 0.18 0.16 0.13 0.13 0.11 0.07 0.05 0.04 0.04 0.05
0.14 0.15 0.17 0.18 0.15 0.10 0.06 0.04 0.03 0.03 0.03 0.02 0.02 0.02 0.01 0.01 0.01 0.00 0.00 0.00 0.00 0.00 0.00 0.01 0.03 0.02 0.03 0.03 0.03 0.03 0.07 0.13 0.17 0.18 0.16 0.14 0.13 0.12 0.10 0.09 0.05 0.04 0.05
0.14 0.13 0.14 0.15 0.12 0.08 0.05 0.04 0.03 0.02 0.02 0.02 0.02 0.02 0.01 0.00 0.00 0.00 0.00 0.00 0.00 0.00 0.00 0.00 0.01 0.01 0.02 0.02 0.03 0.03 0.03 0.05 0.09 0.13 0.14 0.13 0.12 0.09 0.09 0.09 0.08 0.05 0.04
0.15 0.14 0.14 0.13 0.12 0.06 0.04 0.03 0.02 0.02 0.02 0.01 0.01 0.00 0.00 0.00 0.00 0.00 0.00 0.00 0.00 0.00 0.00 0.00 0.00 0.00 0.01 0.02 0.04 0.04 0.04 0.04 0.05 0.09 0.12 0.14 0.12 0.09 0.08 0.07 0.10 0.09 0.06
0.16 0.13 0.12 0.10 0.08 0.05 0.03 0.02 0.02 0.01 0.01 0.01 0.00 0.00 0.00 0.00 0.00 0.00 0.00 0.00 0.00 0.00 0.00 0.00 0.00 0.00 0.00 0.01 0.03 0.04 0.04 0.04 0.04 0.04 0.07 0.11 0.12 0.10 0.08 0.08 0.11 0.13 0.11
0.14 0.13 0.13 0.12 0.09 0.07 0.05 0.04 0.03 0.02 0.01 0.01 0.00 0.00 0.00 0.00 0.00 0.00 0.00 0.00 0.00 0.00 0.00 0.00 0.00 0.00 0.01 0.00 0.01 0.02 0.02 0.02 0.03 0.04 0.04 0.06 0.09 0.09 0.09 0.09 0.11 0.14 0.15
0.11 0.11 0.11 0.11 0.10 0.10 0.10 0.07 0.05 0.03 0.02 0.01 0.00 0.00 0.00 0.00 0.00 0.00 0.00 0.00 0.00 0.00 0.00 0.00 0.00 0.00 0.00 0.00 0.01 0.01 0.01 0.01 0.01 0.02 0.03 0.04 0.06 0.08 0.09 0.09 0.10 0.13 0.15
0.08 0.08 0.08 0.08 0.08 0.08 0.08 0.08 0.07 0.05 0.04 0.03 0.01 0.00 0.00 0.00 0.00 0.00 0.00 0.00 0.00 0.00 0.00 0.00 0.00 0.00 0.00 0.00 0.01 0.02 0.01 0.01 0.01 0.02 0.02 0.04 0.05 0.06 0.08 0.10 0.09 0.10 0.12
0.03 0.04 0.05 0.06 0.06 0.06 0.07 0.07 0.07 0.06 0.05 0.04 0.03 0.01 0.00 0.00 0.00 0.00 0.00 0.00 0.01 0.01 0.00 0.00 0.00 0.00 0.00 0.01 0.01 0.01 0.01 0.02 0.02 0.02 0.03 0.04 0.05 0.06 0.08 0.11 0.11 0.10 0.09
0.01 0.02 0.03 0.03 0.04 0.05 0.06 0.06 0.06 0.06 0.05 0.03 0.03 0.02 0.01 0.01 0.00 0.00 0.00 0.00 0.01 0.01 0.01 0.00 0.00 0.00 0.01 0.01 0.01 0.01 0.01 0.02 0.03 0.03 0.04 0.04 0.05 0.06 0.06 0.08 0.09 0.09 0.08
0.00 0.01 0.01 0.02 0.03 0.05 0.06 0.06 0.06 0.06 0.06 0.04 0.02 0.01 0.01 0.02 0.01 0.01 0.00 0.00 0.00 0.01 0.01 0.00 0.00 0.00 0.01 0.01 0.01 0.01 0.01 0.01 0.01 0.02 0.03 0.04 0.04 0.04 0.05 0.05 0.06 0.06 0.05
0.00 0.00 0.00 0.01 0.01 0.02 0.04 0.06 0.07 0.07 0.06 0.06 0.05 0.03 0.02 0.02 0.01 0.01 0.01 0.00 0.00 0.01 0.01 0.01 0.00 0.01 0.01 0.02 0.02 0.02 0.01 0.01 0.01 0.01 0.02 0.02 0.03 0.03 0.04 0.04 0.04 0.04 0.03
0.00 0.00 0.00 0.00 0.00 0.01 0.01 0.03 0.05 0.06 0.06 0.06 0.06 0.05 0.03 0.03 0.02 0.01 0.01 0.00 0.00 0.00 0.01 0.01 0.01 0.01 0.01 0.01 0.02 0.02 0.02 0.02 0.02 0.02 0.02 0.02 0.04 0.04 0.04 0.05 0.05 0.04 0.04
0.00 0.00 0.00 0.00 0.00 0.00 0.01 0.01 0.02 0.03 0.04 0.05 0.05 0.05 0.04 0.03 0.02 0.02 0.01 0.01 0.01 0.01 0.01 0.01 0.01 0.01 0.02 0.02 0.02 0.03 0.03 0.03 0.03 0.03 0.03 0.03 0.03 0.05 0.06 0.05 0.05 0.06 0.06
0.00 0.00 0.00 0.00 0.00 0.00 0.00 0.00 0.00 0.00 0.01 0.02 0.03 0.04 0.04 0.03 0.03 0.03 0.02 0.01 0.01 0.01 0.01 0.01 0.01 0.01 0.02 0.02 0.03 0.03 0.04 0.04 0.04 0.03 0.03 0.02 0.02 0.03 0.05 0.05 0.04 0.05 0.07
0.00 0.00 0.00 0.00 0.00 0.00 0.00 0.00 0.00 0.00 0.00 0.01 0.02 0.04 0.05 0.05 0.04 0.03 0.02 0.02 0.01 0.01 0.01 0.01 0.01 0.01 0.01 0.02 0.02 0.03 0.03 0.04 0.06 0.06 0.03 0.04 0.03 0.03 0.03 0.03 0.04 0.04 0.05
0.00 0.00 0.00 0.00 0.00 0.00 0.00 0.00 0.00 0.00 0.00 0.01 0.02 0.03 0.04 0.05 0.05 0.04 0.03 0.02 0.02 0.01 0.01 0.01 0.01 0.01 0.01 0.01 0.03 0.03 0.03 0.03 0.03 0.05 0.05 0.06 0.05 0.04 0.03 0.03 0.03 0.03 0.04
0.01 0.00 0.00 0.00 0.00 0.00 0.00 0.00 0.00 0.00 0.00 0.00 0.01 0.03 0.04 0.04 0.04 0.04 0.04 0.03 0.01 0.01 0.01 0.01 0.01 0.01 0.01 0.02 0.04 0.05 0.05 0.05 0.05 0.05 0.06 0.07 0.06 0.05 0.04 0.03 0.02 0.02 0.02
0.01 0.01 0.01 0.00 0.00 0.00 0.00 0.00 0.00 0.00 0.00 0.00 0.01 0.02 0.04 0.05 0.06 0.05 0.04 0.03 0.02 0.02 0.02 0.02 0.02 0.03 0.03 0.03 0.05 0.06 0.06 0.06 0.08 0.09 0.08 0.07 0.07 0.04 0.04 0.03 0.02 0.02 0.01
0.02 0.01 0.01 0.01 0.01 0.00 0.00 0.00 0.00 0.00 0.00 0.00 0.01 0.03 0.04 0.07 0.07 0.06 0.05 0.04 0.03 0.02 0.02 0.02 0.02 0.03 0.03 0.04 0.06 0.05 0.06 0.06 0.06 0.08 0.07 0.07 0.07 0.04 0.04 0.03 0.02 0.01 0.01
MSLP
1012.15 1012.16 1012.14 1012.11 1012.10 1012.13 1012.21 1012.34 1012.50 1012.67 1012.82 1012.95 1013.05 1013.11 1013.15 1013.17 1013.19 1013.21 1013.25 1013.32 1013.40 1013.52 1013.66 1013.84 1014.05 1014.29 1014.57 1014.87 1015.19 1015.51 1015.83 1016.14 1016.44 1016.75 1017.06 1017.39 1017.73 1018.10 1018.47 1018.85 1019.21 1019.56 1019.88
1011.67 1011.68 1011.67 1011.68 1011.71 1011.78 1011.89 1012.02 1012.18 1012.34 1012.50 1012.62 1012.72 1012.79 1012.83 1012.84 1012.85 1012.85 1012.86 1012.88 1012.93 1013.01 1013.14 1013.31 1013.53 1013.80 1014.10 1014.43 1014.76 1015.09 1015.40 1015.71 1016.01 1016.31 1016.62 1016.96 1017.32 1017.70 1018.10 1018.49 1018.87 1019.23 1019.57
1011.13 1011.16 1011.22 1011.29 1011.40 1011.53 1011.68 1011.84 1012.00 1012.16 1012.29 1012.41 1012.50 1012.56 1012.60 1012.61 1012.59 1012.57 1012.53 1012.51 1012.50 1012.54 1012.63 1012.79 1013.00 1013.28 1013.59 1013.93 1014.27 1014.60 1014.92 1015.22 1015.50 1015.80 1016.11 1016.44 1016.81 1017.20 1017.61 1018.02 1018.41 1018.79 1019.16
1010.59 1010.68 1010.82 1010.99 1011.19 1011.40 1011.61 1011.80 1011.96 1012.10 1012.22 1012.31 1012.38 1012.43 1012.46 1012.45 1012.42 1012.36 1012.28 1012.20 1012.14 1012.12 1012.16 1012.28 1012.47 1012.73 1013.04 1013.38 1013.72 1014.05 1014.36 1014.65 1014.92 1015.20 1015.50 1015.83 1016.19 1016.58 1016.99 1017.41 1017.83 1018.23 1018.62
1010.11 1010.28 1010.51 1010.80 1011.10 1011.39 1011.65 1011.86 1012.03 1012.15 1012.23 1012.30 1012.35 1012.38 1012.39 1012.38 1012.33 1012.25 1012.13 1012.00 1011.87 1011.79 1011.76 1011.82 1011.96 1012.18 1012.47 1012.78 1013.11 1013.43 1013.73 1014.00 1014.26 1014.52 1014.81 1015.12 1015.48 1015.86 1016.28 1016.71 1017.14 1017.56 1017.98
1009.71 1009.96 1010.30 1010.69 1011.09 1011.45 1011.76 1011.99 1012.14 1012.23 1012.29 1012.32 1012.35 1012.38 1012.39 1012.39 1012.34 1012.24 1012.10 1011.92 1011.74 1011.59 1011.48 1011.46 1011.53 1011.69 1011.92 1012.19 1012.48 1012.77 1013.05 1013.30 1013.55 1013.80 1014.07 1014.38 1014.72 1015.10 1015.51 1015.95 1016.39 1016.83 1017.27
1009.42 1009.74 1010.16 1010.64 1011.11 1011.52 1011.86 1012.09 1012.22 1012.29 1012.31 1012.33 1012.35 1012.39 1012.43 1012.45 1012.43 1012.34 1012.20 1012.00 1011.77 1011.54 1011.36 1011.25 1011.22 1011.29 1011.43 1011.64 1011.88 1012.12 1012.37 1012.60 1012.84 1013.08 1013.35 1013.64 1013.98 1014.35 1014.76 1015.19 1015.64 1016.09 1016.55
1009.25 1009.61 1010.08 1010.60 1011.10 1011.54 1011.87 1012.09 1012.20 1012.24 1012.25 1012.27 1012.31 1012.38 1012.47 1012.54 1012.57 1012.53 1012.41 1012.20 1011.94 1011.66 1011.40 1011.19 1011.05 1011.01 1011.05 1011.17 1011.33 1011.52 1011.73 1011.94 1012.17 1012.41 1012.67 1012.97 1013.30 1013.67 1014.07 1014.49 1014.93 1015.38 1015.84
1009.18 1009.55 1010.03 1010.54 1011.04 1011.46 1011.76 1011.95 1012.03 1012.06 1012.06 1012.10 1012.18 1012.31 1012.47 1012.62 1012.73 1012.75 1012.67 1012.49 1012.22 1011.90 1011.56 1011.26 1011.02 1010.86 1010.79 1010.80 1010.87 1010.99 1011.16 1011.35 1011.56 1011.80 1012.07 1012.38 1012.71 1013.07 1013.46 1013.87 1014.29 1014.72 1015.16
1009.23 1009.56 1009.99 1010.46 1010.90 1011.26 1011.51 1011.66 1011.71 1011.72 1011.74 1011.80 1011.93 1012.13 1012.38 1012.62 1012.82 1012.93 1012.92 1012.77 1012.52 1012.18 1011.79 1011.41 1011.07 1010.80 1010.61 1010.51 1010.49 1010.54 1010.65 1010.81 1011.02 1011.26 1011.54 1011.85 1012.18 1012.54 1012.91 1013.29 1013.68 1014.07 1014.48
1009.36 1009.63 1009.99 1010.37 1010.72 1010.99 1011.17 1011.25 1011.27 1011.26 1011.29 1011.39 1011.57 1011.84 1012.16 1012.50 1012.79 1012.98 1013.04 1012.96 1012.73 1012.40 1011.99 1011.55 1011.13 1010.76 1010.47 1010.27 1010.16 1010.14 1010.19 1010.32 1010.51 1010.75 1011.03 1011.34 1011.67 1012.01 1012.36 1012.70 1013.05 1013.40 1013.77
1009.56 1009.75 1010.01 1010.28 1010.51 1010.68 1010.77 1010.79 1010.76 1010.74 1010.77 1010.89 1011.12 1011.44 1011.82 1012.22 1012.58 1012.85 1012.98 1012.96 1012.78 1012.47 1012.06 1011.60 1011.14 1010.71 1010.34 1010.05 1009.86 1009.77 1009.77 1009.86 1010.02 1010.25 1010.52 1010.82 1011.13 1011.45 1011.76 1012.05 1012.35 1012.65 1012.96
1009.80 1009.91 1010.06 1010.21 1010.33 1010.39 1010.39 1010.34 1010.27 1010.22 1010.24 1010.37 1010.60 1010.94 1011.35 1011.79 1012.19 1012.51 1012.69 1012.73 1012.60 1012.34 1011.97 1011.52 1011.05 1010.59 1010.18 1009.84 1009.58 1009.43 1009.38 1009.42 1009.54 1009.74 1009.99 1010.26 1010.54 1010.82 1011.08 1011.32 1011.56 1011.80 1012.06
1010.01 1010.05 1010.10 1010.15 1010.16 1010.13 1010.05 1009.94 1009.83 1009.75 1009.76 1009.86 1010.08 1010.40 1010.80 1011.23 1011.64 1011.97 1012.19 1012.28 1012.22 1012.02 1011.70 1011.31 1010.86 1010.41 1009.99 1009.62 1009.33 1009.13 1009.02 1009.02 1009.10 1009.25 1009.46 1009.69 1009.92 1010.14 1010.35 1010.53 1010.70 1010.88 1011.09
1010.12 1010.11 1010.10 1010.07 1010.00 1009.90 1009.77 1009.61 1009.47 1009.37 1009.34 1009.41 1009.59 1009.87 1010.22 1010.60 1010.98 1011.31 1011.55 1011.67 1011.66 1011.54 1011.30 1010.98 1010.60 1010.19 1009.79 1009.43 1009.12 1008.89 1008.75 1008.70 1008.73 1008.83 1008.98 1009.16 1009.34 1009.50 1009.64 1009.75 1009.87 1009.99 1010.15
1010.06 1010.02 1009.97 1009.91 1009.81 1009.67 1009.51 1009.34 1009.18 1009.06 1009.01 1009.04 1009.16 1009.37 1009.65 1009.98 1010.30 1010.60 1010.83 1010.98 1011.03 1010.98 1010.83 1010.60 1010.31 1009.97 1009.62 1009.29 1008.99 1008.76 1008.59 1008.50 1008.50 1008.55 1008.65 1008.77 1008.88 1008.98 1009.06 1009.12 1009.17 1009.25 1009.36
1009.75 1009.72 1009.67 1009.60 1009.50 1009.38 1009.23 1009.07 1008.92 1008.80 1008.73 1008.73 1008.80 1008.94 1009.15 1009.39 1009.66 1009.91 1010.13 1010.29 1010.38 1010.40 1010.35 1010.21 1010.01 1009.77 1009.49 1009.21 1008.95 1008.73 1008.57 1008.47 1008.44 1008.46 1008.52 1008.60 1008.67 1008.72 1008.75 1008.76 1008.76 1008.79 1008.87
1009.16 1009.16 1009.14 1009.11 1009.05 1008.97 1008.86 1008.75 1008.63 1008.53 1008.46 1008.44 1008.48 1008.57 1008.70 1008.88 1009.08 1009.29 1009.48 1009.65 1009.78 1009.85 1009.87 1009.82 1009.72 1009.56 1009.37 1009.16 1008.96 1008.78 1008.65 1008.57 1008.55 1008.57 1008.63 1008.69 1008.74 1008.77 1008.77 1008.75 1008.72 1008.71 1008.76
1008.33 1008.37 1008.41 1008.44 1008.44 1008.42 1008.38 1008.32 1008.26 1008.20 1008.15 1008.13 1008.15 1008.20 1008.29 1008.42 1008.56 1008.73 1008.90 1009.06 1009.20 1009.31 1009.39 1009.41 1009.38 1009.31 1009.20 1009.07 1008.94 1008.84 1008.77 1008.74 1008.77 1008.84 1008.93 1009.02 1009.09 1009.13 1009.14 1009.11 1009.07 1009.05 1009.08
1007.34 1007.43 1007.53 1007.62 1007.69 1007.75 1007.78 1007.78 1007.78 1007.77 1007.76 1007.75 1007.77 1007.81 1007.87 1007.96 1008.07 1008.19 1008.33 1008.48 1008.62 1008.74 1008.84 1008.91 1008.94 1008.93 1008.90 1008.85 1008.81 1008.80 1008.82 1008.89 1009.01 1009.17 1009.34 1009.51 1009.65 1009.75 1009.79 1009.79 1009.77 1009.75 1009.77
1006.29 1006.43 1006.58 1006.73 1006.88 1006.99 1007.09 1007.15 1007.20 1007.23 1007.26 1007.28 1007.31 1007.35 1007.40 1007.46 1007.54 1007.63 1007.74 1007.86 1007.97 1008.08 1008.18 1008.26 1008.32 1008.36 1008.39 1008.42 1008.48 1008.57 1008.72 1008.91 1009.17 1009.46 1009.76 1010.05 1010.30 1010.49 1010.62 1010.68 1010.70 1010.71 1010.73
1005.30 1005.48 1005.69 1005.89 1006.07 1006.24 1006.37 1006.48 1006.56 1006.62 1006.67 1006.72 1006.76 1006.80 1006.84 1006.89 1006.94 1007.00 1007.07 1007.14 1007.22 1007.29 1007.37 1007.44 1007.50 1007.56 1007.65 1007.75 1007.90 1008.11 1008.39 1008.74 1009.15 1009.60 1010.06 1010.51 1010.91 1011.23 1011.47 1011.63 1011.72 1011.78 1011.83
1004.48 1004.69 1004.92 1005.15 1005.36 1005.54 1005.69 1005.81 1005.90 1005.97 1006.03 1006.08 1006.13 1006.17 1006.20 1006.23 1006.25 1006.28 1006.30 1006.33 1006.35 1006.38 1006.41 1006.45 1006.50 1006.58 1006.70 1006.87 1007.11 1007.43 1007.84 1008.34 1008.91 1009.54 1010.18 1010.79 1011.36 1011.84 1012.22 1012.49 1012.68 1012.80 1012.91
1003.88 1004.10 1004.34 1004.57 1004.78 1004.95 1005.09 1005.19 1005.27 1005.34 1005.39 1005.43 1005.46 1005.49 1005.51 1005.51 1005.51 1005.50 1005.48 1005.45 1005.42 1005.40 1005.38 1005.39 1005.43 1005.51 1005.65 1005.87 1006.19 1006.61 1007.14 1007.78 1008.50 1009.28 1010.08 1010.87 1011.59 1012.22 1012.75 1013.15 1013.45 1013.67 1013.84
1003.48 1003.70 1003.93 1004.14 1004.32 1004.47 1004.57 1004.65 1004.71 1004.74 1004.77 1004.79 1004.81 1004.82 1004.81 1004.79 1004.76 1004.71 1004.65 1004.58 1004.50 1004.44 1004.39 1004.37 1004.40 1004.48 1004.65 1004.91 1005.29 1005.79 1006.41 1007.15 1007.99 1008.90 1009.83 1010.75 1011.61 1012.38 1013.03 1013.56 1013.98 1014.29 1014.55
1003.21 1003.41 1003.61 1003.79 1003.94 1004.05 1004.12 1004.17 1004.20 1004.21 1004.21 1004.21 1004.20 1004.19 1004.16 1004.12 1004.06 1003.98 1003.89 1003.80 1003.70 1003.61 1003.55 1003.53 1003.56 1003.66 1003.85 1004.15 1004.57 1005.12 1005.80 1006.61 1007.52 1008.50 1009.51 1010.51 1011.47 1012.34 1013.10 1013.73 1014.25 1014.67 1015.01
Thickness
5746 5744 5743 5742 5742 5741 5740 5740 5740 5739 5739 5738 5737 5737 5736 5735 5735 5735 5736 5736 5736 5737 5737 5737 5738 5737 5737 5736 5736 5736 5735 5733 5732 5730 5729 5728 5728 5727 5726 5725 5723 5722 5721
5744 5741 5740 5739 5739 5738 5737 5737 5736 5735 5735 5735 5734 5734 5735 5734 5734 5734 5734 5734 5735 5735 5735 5736 5736 5736 5736 5736 5735 5735 5734 5733 5732 5731 5730 5729 5728 5727 5726 5725 5724 5723 5721
5739 5738 5736 5735 5735 5735 5734 5734 5733 5731 5730 5730 5730 5731 5732 5732 5732 5732 5732 5732 5733 5734 5734 5735 5735 5735 5735 5734 5735 5735 5734 5733 5732 5731 5730 5729 5728 5728 5727 5726 5724 5723 5722
5735 5734 5733 5732 5732 5730 5729 5728 5727 5726 5725 5724 5725 5727 5728 5729 5730 5730 5729 5730 5730 5732 5733 5733 5734 5734 5733 5733 5733 5733 5733 5731 5731 5731 5730 5729 5728 5728 5727 5726 5725 5723 5722
5730 5729 5729 5729 5728 5726 5724 5724 5722 5721 5720 5719 5720 5722 5724 5726 5727 5728 5728 5728 5729 5729 5730 5730 5731 5731 5732 5732 5732 5732 5731 5730 5730 5730 5729 5729 5728 5728 5727 5727 5725 5724 5722
5725 5725 5724 5723 5722 5720 5719 5718 5717 5716 5716 5715 5716 5718 5720 5722 5723 5724 5725 5726 5727 5727 5727 5728 5728 5729 5729 5730 5730 5730 5730 5730 5729 5729 5729 5729 5728 5727 5727 5726 5726 5725 5723
5720 5719 5718 5716 5716 5715 5713 5712 5711 5711 5710 5710 5709 5710 5713 5717 5719 5721 5722 5723 5724 5725 5725 5725 5725 5726 5726 5727 5728 5728 5728 5728 5728 5728 5728 5728 5727 5727 5726 5726 5725 5725 5724
5713 5713 5712 5710 5710 5708 5708 5707 5705 5704 5704 5705 5703 5701 5701 5706 5712 5716 5717 5718 5719 5721 5722 5723 5723 5723 5723 5724 5725 5725 5726 5726 5727 5727 5727 5727 5726 5726 5726 5725 5725 5725 5724
5706 5707 5706 5706 5705 5704 5703 5702 5701 5699 5698 5698 5699 5697 5694 5694 5699 5706 5709 5712 5713 5715 5717 5719 5720 5720 5721 5721 5721 5722 5723 5724 5725 5726 5726 5725 5724 5724 5725 5725 5725 5724 5724
5698 5699 5699 5699 5699 5699 5697 5697 5698 5695 5694 5692 5692 5693 5693 5693 5692 5694 5700 5705 5707 5710 5712 5715 5716 5718 5718 5719 5719 5719 5720 5721 5722 5723 5723 5723 5723 5723 5724 5724 5724 5724 5724
5689 5690 5691 5691 5692 5692 5692 5691 5692 5690 5690 5688 5687 5688 5687 5687 5688 5687 5689 5694 5699 5704 5707 5709 5712 5714 5716 5716 5716 5717 5717 5717 5718 5719 5719 5720 5721 5722 5722 5723 5723 5723 5723
5680 5681 5681 5682 5683 5684 5685 5685 5685 5684 5684 5684 5683 5683 5683 5682 5683 5684 5684 5686 5690 5696 5702 5705 5707 5709 5711 5712 5713 5713 5714 5714 5714 5715 5715 5716 5718 5719 5720 5720 5721 5721 5721
5667 5669 5670 5670 5672 5674 5675 5676 5677 5678 5678 5678 5678 5678 5680 5681 5681 5681 5681 5682 5683 5689 5694 5699 5702 5705 5707 5708 5709 5709 5710 5710 5711 5711 5712 5712 5713 5715 5716 5717 5718 5718 5719
5653 5655 5656 5658 5660 5662 5664 5666 5667 5669 5670 5670 5671 5672 5673 5675 5675 5677 5677 5676 5678 5681 5685 5691 5696 5699 5701 5702 5703 5705 5706 5706 5707 5708 5708 5709 5710 5711 5712 5713 5714 5715 5716
5638 5640 5642 5644 5646 5649 5651 5654 5656 5658 5659 5661 5662 5664 5665 5667 5668 5671 5672 5673 5673 5674 5679 5684 5687 5692 5694 5696 5698 5699 5700 5701 5702 5703 5703 5704 5705 5706 5707 5708 5709 5710 5711
5621 5623 5625 5628 5630 5633 5636 5639 5642 5645 5647 5650 5652 5654 5656 5658 5660 5663 5665 5667 5670 5671 5674 5679 5681 5684 5687 5690 5691 5693 5695 5696 5697 5698 5698 5699 5699 5700 5701 5702 5704 5704 5705
5604 5605 5607 5610 5613 5617 5620 5623 5627 5630 5634 5637 5641 5644 5647 5649 5651 5654 5657 5660 5663 5665 5669 5674 5676 5678 5680 5682 5685 5687 5688 5690 5690 5691 5692 5692 5693 5693 5694 5696 5697 5698 5699
5588 5588 5590 5592 5595 5599 5603 5606 5611 5616 5619 5623 5628 5632 5636 5640 5643 5646 5648 5652 5656 5659 5663 5667 5669 5671 5673 5675 5678 5680 5681 5683 5683 5684 5684 5685 5685 5685 5686 5688 5689 5691 5692
5572 5572 5573 5575 5578 5582 5585 5589 5593 5598 5603 5608 5613 5618 5624 5628 5633 5636 5640 5644 5648 5653 5656 5660 5662 5665 5666 5668 5671 5673 5674 5675 5675 5675 5676 5676 5676 5677 5678 5679 5680 5682 5684
5557 5558 5558 5560 5562 5565 5568 5572 5576 5581 5586 5592 5598 5604 5610 5616 5623 5628 5631 5636 5640 5644 5648 5652 5655 5658 5660 5662 5664 5665 5666 5667 5666 5667 5666 5666 5666 5667 5668 5669 5671 5672 5674
5546 5546 5546 5547 5549 5550 5553 5556 5560 5565 5570 5576 5582 5589 5597 5604 5612 5618 5623 5628 5632 5636 5641 5645 5649 5652 5654 5655 5658 5659 5659 5658 5657 5658 5658 5657 5657 5657 5656 5658 5659 5662 5663
5534 5535 5535 5536 5538 5541 5544 5546 5548 5551 5555 5560 5567 5575 5583 5591 5600 5607 5614 5620 5625 5630 5635 5640 5644 5648 5651 5652 5653 5653 5653 5653 5650 5649 5650 5647 5647 5646 5646 5647 5648 5651 5652
5524 5525 5526 5527 5529 5532 5534 5536 5538 5540 5543 5548 5553 5560 5569 5579 5587 5596 5603 5611 5617 5623 5630 5635 5640 5645 5648 5650 5649 5648 5649 5649 5647 5644 5643 5638 5637 5636 5636 5636 5638 5640 5641
5514 5516 5518 5519 5521 5524 5526 5528 5530 5532 5534 5538 5543 5549 5557 5565 5574 5582 5591 5600 5608 5616 5623 5629 5636 5641 5644 5646 5647 5646 5645 5642 5639 5637 5637 5632 5628 5627 5626 5626 5627 5629 5630
5504 5506 5509 5512 5514 5517 5520 5522 5523 5524 5527 5531 5536 5541 5547 5554 5563 5570 5580 5590 5599 5607 5614 5621 5628 5634 5638 5640 5641 5640 5638 5637 5634 5630 5630 5628 5622 5619 5617 5616 5616 5618 5619
5496 5498 5502 5504 5508 5511 5514 5516 5517 5519 5521 5525 5529 5533 5539 5545 5551 5559 5569 5579 5589 5599 5606 5613 5619 5625 5630 5633 5635 5638 5638 5636 5633 5627 5625 5623 5619 5617 5610 5606 5607 5608 5609